Temperature
9 9 9 9 9 9 9 9 9 9 8 8 8 8 8 8 8 8 8 8 7 7 7 7 7 7 6 7 7 7 7 7 7 7 6 6 5 5 5 5 5 5 5
8 8 8 8 8 8 8 8 8 8 8 7 7 7 7 7 7 7 7 6 6 6 6 6 6 6 6 6 6 6 6 6 6 6 6 6 5 5 5 5 5 5 5
7 7 7 7 7 7 7 7 7 7 7 7 7 7 6 6 6 6 6 6 6 5 5 5 5 5 5 5 5 5 6 6 6 6 6 6 6 5 5 5 5 5 5
6 6 6 6 6 6 6 6 6 6 6 6 6 6 6 5 5 5 5 5 5 5 5 5 5 5 4 5 5 5 5 5 5 6 6 6 6 6 5 6 6 6 6
6 6 5 5 5 5 5 6 6 5 5 5 5 5 5 5 5 5 5 4 4 4 4 4 5 5 5 5 5 5 5 5 6 6 7 6 6 6 6 6 6 6 6
5 5 5 5 5 5 5 5 5 5 5 5 5 4 5 5 5 5 4 4 4 4 4 4 4 4 5 5 5 5 5 5 5 5 6 6 5 5 5 5 6 6 6
5 5 5 5 5 5 5 5 5 4 4 4 4 4 4 5 5 5 5 4 4 4 4 4 5 4 4 4 5 5 5 5 5 5 5 5 5 5 5 5 5 5 5
5 5 5 5 5 5 5 5 4 4 4 4 4 4 4 4 4 4 4 4 4 4 4 4 4 4 5 5 5 5 5 5 5 5 5 5 5 5 5 5 5 5 5
5 5 5 5 5 5 5 4 4 4 4 4 4 4 4 4 4 4 4 4 4 4 4 5 5 4 5 5 5 5 5 5 5 5 5 5 5 5 5 5 5 6 6
5 5 5 5 5 5 4 4 4 4 4 4 3 3 3 4 4 4 4 5 5 5 5 5 5 5 5 5 5 5 5 5 5 5 5 5 5 5 5 5 5 6 6
5 5 5 5 5 4 4 4 4 4 4 4 4 3 4 4 4 4 5 4 5 5 5 5 5 5 5 5 5 5 5 5 5 6 6 6 6 6 6 5 5 5 5
5 5 5 5 5 5 4 4 4 4 4 4 4 4 4 4 4 4 5 5 5 5 5 5 5 5 5 5 5 5 5 5 6 6 6 6 6 6 6 6 5 5 5
5 5 5 5 5 4 4 4 4 4 5 5 5 5 5 4 4 4 5 5 5 5 5 5 5 5 5 5 5 5 5 5 6 6 6 6 6 6 6 6 6 5 5
5 5 5 5 5 4 5 5 5 5 5 5 5 5 5 5 4 4 5 5 5 5 5 5 5 5 5 5 5 5 5 5 5 6 6 6 6 6 6 6 6 6 6
5 5 5 5 5 5 4 4 4 4 4 5 5 5 5 5 4 4 4 4 5 4 5 5 5 5 5 5 5 5 5 5 5 6 6 6 6 6 6 7 6 6 7
5 5 5 5 5 5 5 4 4 4 4 4 4 4 4 4 4 4 4 4 4 4 5 5 5 5 5 5 5 5 5 5 5 6 6 6 6 6 7 7 7 7 7
5 5 6 6 5 5 5 5 4 4 4 4 4 4 4 4 4 4 4 4 4 4 5 5 5 5 5 5 5 5 5 5 5 6 6 6 6 7 7 7 7 7 7
5 5 5 5 5 5 5 5 5 5 5 4 4 4 4 4 4 4 4 4 5 5 5 4 4 4 4 4 5 5 5 5 5 5 6 6 6 6 7 7 7 7 7
6 6 6 6 6 5 5 5 5 5 5 5 5 4 4 4 4 4 4 4 5 4 4 4 4 4 4 4 4 4 4 5 5 5 5 6 6 6 6 7 7 7 7
6 6 5 6 6 5 5 5 5 5 5 5 5 5 4 5 4 4 4 4 4 4 4 4 4 3 4 4 4 4 4 5 5 5 5 5 6 6 6 7 7 7 7
6 6 6 6 6 6 5 5 5 5 5 5 5 4 4 5 5 4 4 4 4 4 3 3 4 4 3 4 4 4 4 4 4 5 5 5 5 6 6 6 7 7 7
7 6 6 6 6 6 5 5 5 5 5 5 5 5 4 5 5 4 4 4 4 3 3 3 3 3 3 3 3 3 4 4 4 4 4 5 5 6 6 6 7 7 7
7 7 6 6 6 5 5 5 5 5 5 5 5 5 5 5 5 4 4 4 3 3 3 3 3 3 3 2 3 3 3 3 4 4 4 4 5 5 6 6 6 7 7
7 7 7 7 6 6 6 6 6 6 5 5 5 5 5 4 4 4 4 4 3 3 3 2 2 2 2 2 2 3 3 4 4 4 4 4 5 5 6 6 6 6 7
7 7 7 7 6 6 6 6 6 6 6 5 5 5 5 5 4 4 4 3 3 3 3 2 2 2 2 2 3 3 3 4 4 4 4 4 5 5 6 6 6 6 6
8 7 7 7 7 6 6 6 6 6 6 6 5 5 5 5 5 4 4 4 3 3 3 2 2 2 2 2 3 3 3 4 4 4 4 4 5 5 5 6 6 7 6
Wind_Speed
14 15 15 15 15 15 14 14 13 13 12 12 12 12 12 11 11 11 11 10 11 10 10 10 10 9 7 7 6 6 6 5 3 3 3 3 3 4 4 5 4 4 1
14 15 15 15 15 15 15 14 13 13 12 12 12 12 12 11 10 11 11 10 10 10 10 10 9 8 8 7 6 7 6 5 4 3 3 3 3 3 4 5 4 4 5
14 15 15 15 15 15 14 13 13 13 12 12 12 12 11 11 10 10 10 10 10 10 9 9 9 8 8 7 7 6 5 5 4 2 3 3 3 3 4 4 3 4 5
14 15 15 14 14 14 14 13 13 12 12 12 11 11 10 10 10 9 9 9 9 9 8 8 9 9 8 7 6 6 5 4 3 3 2 2 2 3 4 4 4 4 4
15 15 15 14 13 13 13 12 12 12 12 11 11 11 10 9 9 8 8 8 8 8 7 7 8 7 7 6 6 6 6 5 4 3 3 3 4 5 5 5 5 5 3
14 14 13 13 13 12 12 11 11 11 11 10 10 10 10 9 10 11 7 7 7 7 6 6 5 5 4 1 2 4 5 6 6 5 4 5 5 6 6 6 6 6 4
13 13 12 12 12 11 11 11 11 10 10 10 9 10 10 10 10 10 9 5 6 6 5 5 5 6 5 5 1 5 4 4 4 6 6 6 6 7 7 7 6 7 6
12 11 11 10 10 10 10 10 9 9 9 8 9 9 9 9 9 8 9 3 6 5 5 5 6 6 7 7 6 4 3 2 2 5 6 7 7 7 8 8 8 7 6
11 10 10 9 9 9 9 9 8 8 8 8 8 8 9 8 9 10 11 3 5 5 5 6 6 6 7 9 6 5 5 4 2 5 8 9 10 10 9 7 7 6 5
10 9 8 8 8 9 8 8 7 7 7 8 8 8 8 8 8 10 12 3 5 4 5 5 7 7 8 9 6 6 7 7 7 4 4 6 6 6 8 6 7 7 5
9 8 8 8 7 7 7 6 6 7 7 7 7 7 7 6 6 8 11 5 5 5 5 5 7 7 7 7 7 6 6 8 7 5 4 3 2 2 2 3 4 5 6
8 8 8 7 6 7 7 6 6 6 7 6 6 6 6 6 6 6 6 6 7 5 5 6 6 6 5 5 5 7 10 10 5 4 4 5 5 5 4 5 4 4 4
8 7 7 7 6 6 6 6 5 4 5 5 5 6 6 6 5 2 1 1 4 3 5 4 3 4 5 1 2 6 8 5 6 5 5 5 5 5 4 2 1 1 2
7 7 6 6 6 6 4 5 5 5 5 5 5 6 6 6 6 5 3 2 3 1 2 3 6 5 3 2 2 3 5 6 6 6 5 5 5 4 4 4 4 3 2
6 6 5 6 6 6 7 6 6 8 7 5 5 5 5 6 7 8 7 6 6 5 5 3 3 4 5 5 5 5 5 5 5 6 5 5 5 5 5 4 4 4 4
5 5 5 5 5 5 7 7 9 8 7 7 8 7 6 7 5 5 4 5 6 9 7 4 5 5 6 6 6 6 6 6 6 6 6 6 6 6 5 5 5 5 4
5 4 4 4 5 4 5 6 7 6 5 5 5 5 6 5 4 2 2 3 5 8 3 5 5 5 6 6 6 6 6 6 6 6 6 6 6 6 6 5 5 6 5
4 5 3 4 4 4 4 4 4 5 6 6 6 5 4 4 2 2 5 7 1 2 5 5 5 6 6 6 6 6 6 6 6 6 6 7 7 7 6 6 6 7 6
4 4 3 4 4 4 4 4 4 4 5 5 6 7 6 6 5 2 6 3 4 4 5 5 5 6 6 6 6 6 6 6 6 6 6 7 7 7 7 7 6 4 5
4 5 2 4 5 5 4 4 4 4 4 3 3 3 2 2 1 2 2 4 4 5 5 5 5 6 6 6 6 6 6 5 6 6 6 6 7 7 7 7 7 7 6
6 7 6 4 4 4 3 3 3 3 3 3 3 5 5 2 2 3 3 4 4 5 5 5 5 6 6 6 6 7 7 6 6 7 7 7 7 7 7 7 7 7 7
5 5 5 4 4 4 3 3 3 3 3 2 3 5 3 2 2 2 3 3 4 4 5 5 6 6 7 7 7 7 7 6 7 7 8 7 7 7 7 7 7 7 7
5 5 5 4 4 5 4 3 3 3 2 2 1 1 1 1 2 2 3 3 3 4 5 5 6 7 8 8 7 7 7 7 8 9 9 8 8 7 7 7 7 7 7
5 4 4 4 4 5 4 4 4 3 3 2 1 0 1 1 1 2 2 2 3 3 4 5 6 7 8 8 7 7 9 11 12 11 11 9 8 7 7 7 7 8 7
5 4 4 4 4 4 4 4 4 3 2 2 1 1 1 1 1 1 1 2 2 3 4 4 5 6 8 8 9 10 13 13 11 11 11 9 7 7 7 6 6 6 7
4 4 4 4 4 4 4 4 4 3 3 2 2 1 1 0 1 1 1 1 2 2 3 4 5 6 7 8 10 12 14 13 13 13 11 9 6 6 8 7 7 6 6
Wind_Direction
81 85 87 88 89 89 89 88 88 87 86 86 87 87 85 84 82 82 83 82 80 77 74 71 63 50 46 43 40 39 36 33 50 56 48 43 14 359 356 341 333 314 309
85 87 88 89 89 88 87 87 85 85 85 86 85 85 84 83 81 81 82 80 79 76 71 67 62 59 51 42 36 41 44 38 42 53 34 33 14 351 339 318 325 327 318
89 89 88 88 88 88 88 86 86 87 86 85 85 84 83 83 82 81 82 81 78 74 69 64 58 52 46 44 36 38 36 39 31 27 34 19 360 1 330 323 328 321 311
92 91 89 88 88 89 89 88 88 88 88 87 85 83 81 79 80 82 84 82 79 75 68 62 54 47 40 33 38 35 26 18 21 8 19 13 2 353 326 335 336 331 324
95 93 92 92 91 90 89 89 89 90 90 88 85 82 78 73 64 68 83 82 78 75 68 62 59 56 39 20 19 16 8 1 2 1 1 3 9 353 351 343 340 329 327
100 99 101 100 97 94 92 92 89 87 86 85 82 80 75 67 40 26 32 79 73 68 63 58 74 67 62 125 18 349 345 348 355 345 357 5 359 355 349 335 338 335 338
103 103 102 101 99 98 98 95 93 91 89 86 83 81 77 63 39 25 6 48 69 61 53 43 43 47 12 17 335 222 229 234 274 317 336 345 344 352 336 333 344 334 333
106 105 104 102 99 98 96 95 95 95 93 90 85 83 82 65 38 19 342 55 70 65 55 44 38 36 26 353 346 1 6 13 292 295 324 322 330 331 321 312 309 303 298
107 106 104 102 100 97 94 95 97 99 97 94 87 84 82 72 38 11 339 77 76 73 63 50 29 33 28 336 336 4 12 17 216 249 278 286 293 291 290 302 317 323 337
109 106 104 100 96 93 93 95 96 100 101 97 89 80 75 67 45 13 342 46 74 80 81 87 69 28 4 341 351 7 10 4 350 336 269 255 259 251 239 272 323 336 345
112 108 104 100 95 93 94 96 101 100 98 95 96 89 78 64 72 35 1 15 42 53 60 61 58 30 7 347 332 1 348 317 314 324 338 349 345 340 332 329 342 337 349
115 109 103 98 94 98 97 97 98 104 113 110 105 100 94 86 59 49 16 8 344 35 45 47 53 18 356 348 356 352 311 297 318 349 357 6 6 7 5 358 359 346 335
118 112 108 102 93 93 97 101 105 107 104 105 104 98 92 92 102 137 180 319 326 22 52 44 358 314 288 258 34 307 306 336 354 357 4 7 3 358 343 347 351 308 279
119 116 115 113 107 94 84 84 88 92 97 99 93 91 93 89 64 48 59 103 184 161 63 159 212 244 280 352 323 338 359 9 352 354 359 355 354 356 2 7 355 343 331
128 125 121 112 104 100 81 59 63 65 47 41 66 71 68 72 43 7 355 22 16 16 337 4 23 21 15 20 17 16 6 8 4 5 358 351 360 5 7 14 1 349 357
139 134 124 117 118 116 116 108 62 65 76 57 34 22 68 60 30 22 20 5 342 323 320 25 26 20 17 15 11 12 17 15 4 355 357 360 0 1 3 4 3 2 1
129 124 120 118 125 123 119 125 128 123 114 97 76 52 44 45 43 25 334 308 299 302 346 33 25 18 12 9 8 8 10 11 356 352 359 0 359 358 360 4 11 5 1
140 134 144 130 127 123 124 126 127 132 136 133 128 116 110 99 68 343 298 279 262 12 31 30 21 14 10 5 3 1 358 359 0 356 0 359 357 353 356 359 11 5 354
156 146 140 131 133 127 130 128 121 117 117 119 129 138 160 170 178 246 292 354 30 30 27 25 16 9 3 359 357 354 349 352 357 347 357 355 352 349 353 353 358 357 333
134 97 143 150 138 136 140 138 132 128 124 117 109 92 121 170 124 94 39 25 22 28 20 15 12 4 358 353 351 351 349 351 351 349 356 351 348 346 346 346 348 347 352
148 143 172 177 148 142 145 145 138 133 128 123 103 74 359 354 44 38 30 31 26 21 17 1 357 1 359 353 356 352 347 351 354 352 349 348 344 343 338 341 347 348 351
151 156 164 150 144 147 148 151 147 140 136 133 130 138 197 283 24 27 32 32 30 23 17 0 352 2 5 359 352 342 344 351 353 351 343 339 338 340 341 345 350 349 353
159 156 154 152 149 145 175 163 159 160 147 140 131 119 144 25 23 34 30 25 26 22 14 1 354 7 9 359 347 338 346 352 344 335 329 329 333 336 340 346 346 347 1
155 159 155 153 159 167 168 165 166 159 154 151 151 117 77 58 30 30 10 21 24 21 14 7 7 9 4 358 348 353 8 349 332 320 321 320 323 333 340 344 346 356 356
161 161 160 159 164 167 168 168 166 163 164 166 166 159 109 82 65 43 35 35 19 21 17 11 8 9 5 4 6 3 354 347 337 323 313 309 323 338 340 347 355 1 5
157 159 166 165 167 169 172 176 174 174 174 171 167 151 122 97 59 39 40 30 10 33 19 21 20 14 9 11 13 0 355 351 343 331 312 308 333 360 350 348 358 7 18
Height
1509 1510 1512 1514 1516 1518 1519 1521 1523 1525 1527 1529 1531 1533 1534 1535 1536 1537 1538 1539 1540 1540 1540 1541 1540 1540 1541 1541 1541 1540 1540 1540 1540 1539 1538 1537 1535 1534 1533 1532 1531 1529 1528
1514 1515 1516 1518 1519 1521 1522 1524 1526 1528 1531 1532 1534 1535 1537 1538 1539 1540 1540 1541 1542 1542 1542 1543 1543 1543 1542 1541 1542 1541 1540 1540 1540 1540 1539 1538 1536 1535 1533 1532 1531 1530 1528
1519 1519 1520 1522 1523 1525 1526 1528 1530 1532 1534 1536 1537 1539 1540 1541 1541 1542 1543 1544 1544 1544 1544 1545 1545 1544 1543 1543 1543 1542 1542 1542 1541 1541 1540 1539 1538 1536 1534 1533 1531 1529 1528
1523 1524 1525 1527 1528 1530 1531 1533 1535 1537 1538 1540 1541 1542 1543 1544 1545 1545 1546 1546 1546 1546 1547 1546 1546 1545 1545 1544 1544 1543 1543 1543 1542 1542 1541 1540 1538 1536 1534 1533 1531 1530 1528
1528 1529 1531 1532 1533 1535 1536 1538 1540 1541 1542 1543 1544 1545 1546 1546 1547 1548 1549 1549 1549 1549 1549 1548 1547 1546 1546 1545 1545 1544 1544 1544 1543 1543 1541 1540 1539 1537 1535 1533 1532 1529 1527
1532 1534 1536 1537 1539 1540 1541 1542 1543 1544 1546 1547 1547 1548 1548 1548 1549 1549 1550 1551 1550 1551 1551 1550 1550 1549 1548 1547 1546 1545 1544 1544 1543 1543 1542 1540 1539 1537 1535 1533 1532 1529 1527
1537 1539 1541 1542 1543 1544 1545 1546 1547 1548 1549 1550 1550 1551 1550 1550 1551 1551 1551 1552 1553 1552 1552 1552 1552 1551 1550 1549 1548 1547 1546 1544 1543 1542 1542 1540 1539 1537 1535 1533 1531 1529 1527
1542 1543 1545 1546 1547 1548 1549 1550 1550 1551 1552 1552 1553 1553 1553 1552 1553 1553 1553 1554 1554 1554 1554 1553 1553 1552 1551 1550 1549 1549 1548 1546 1544 1543 1541 1540 1539 1536 1534 1533 1530 1528 1525
1546 1548 1549 1550 1551 1552 1552 1552 1553 1553 1554 1555 1555 1555 1555 1555 1555 1555 1555 1557 1556 1556 1556 1555 1554 1554 1552 1550 1550 1549 1548 1547 1545 1543 1542 1540 1538 1536 1534 1532 1531 1528 1526
1550 1551 1552 1553 1554 1554 1554 1555 1555 1556 1556 1557 1557 1557 1557 1557 1557 1557 1557 1559 1559 1559 1558 1557 1556 1555 1553 1552 1551 1550 1549 1547 1546 1544 1542 1540 1538 1536 1534 1532 1530 1529 1526
1552 1554 1555 1556 1556 1556 1556 1557 1557 1558 1558 1559 1559 1559 1559 1559 1559 1559 1559 1559 1560 1560 1560 1560 1558 1556 1555 1553 1552 1550 1549 1547 1546 1545 1543 1541 1539 1537 1536 1533 1531 1529 1527
1555 1556 1557 1558 1559 1559 1558 1559 1559 1560 1560 1561 1561 1562 1562 1562 1562 1562 1561 1561 1561 1561 1561 1561 1559 1557 1556 1554 1553 1551 1550 1548 1547 1546 1544 1542 1540 1538 1536 1534 1531 1529 1527
1556 1557 1558 1559 1560 1560 1561 1561 1561 1562 1563 1563 1564 1565 1565 1565 1565 1564 1564 1563 1563 1562 1562 1561 1560 1558 1557 1556 1554 1552 1550 1549 1548 1546 1544 1543 1541 1538 1536 1534 1532 1530 1528
1558 1559 1560 1561 1561 1562 1562 1563 1564 1564 1565 1565 1566 1566 1567 1567 1567 1567 1566 1566 1565 1564 1563 1562 1560 1559 1558 1556 1555 1553 1552 1550 1548 1547 1545 1543 1541 1539 1537 1535 1533 1531 1529
1559 1560 1561 1562 1563 1563 1564 1564 1565 1564 1565 1566 1567 1568 1569 1569 1568 1567 1566 1566 1565 1564 1564 1563 1562 1561 1559 1558 1556 1554 1552 1551 1550 1548 1546 1544 1542 1540 1538 1536 1534 1532 1530
1560 1561 1562 1563 1564 1565 1565 1565 1565 1566 1566 1567 1567 1568 1568 1569 1568 1568 1567 1566 1565 1564 1564 1564 1563 1561 1560 1558 1556 1555 1553 1552 1550 1549 1547 1545 1543 1541 1539 1537 1535 1533 1531
1561 1562 1563 1564 1565 1566 1567 1567 1568 1568 1568 1568 1569 1569 1569 1569 1569 1568 1567 1567 1566 1565 1565 1564 1563 1562 1560 1559 1557 1556 1554 1553 1551 1549 1548 1546 1544 1542 1540 1538 1536 1534 1531
1562 1563 1564 1565 1566 1567 1567 1568 1569 1569 1570 1570 1570 1570 1570 1570 1569 1569 1568 1568 1568 1567 1566 1565 1563 1562 1561 1559 1558 1556 1555 1553 1552 1550 1549 1547 1545 1543 1541 1539 1536 1535 1532
1563 1564 1565 1566 1567 1567 1568 1569 1570 1570 1571 1571 1572 1571 1571 1571 1570 1569 1569 1569 1568 1567 1566 1565 1564 1562 1561 1559 1558 1556 1555 1554 1552 1551 1549 1548 1546 1544 1542 1539 1537 1535 1533
1563 1564 1565 1566 1567 1568 1568 1569 1570 1571 1571 1572 1572 1573 1573 1572 1572 1571 1570 1569 1569 1567 1566 1565 1564 1562 1560 1559 1557 1556 1555 1554 1552 1551 1550 1548 1546 1544 1542 1540 1538 1536 1533
1563 1564 1565 1566 1567 1568 1569 1570 1570 1571 1572 1572 1573 1572 1572 1572 1572 1571 1571 1570 1568 1567 1566 1564 1563 1562 1560 1558 1557 1555 1554 1554 1552 1551 1550 1548 1546 1545 1543 1540 1538 1536 1534
1563 1564 1566 1566 1567 1568 1569 1570 1571 1571 1572 1572 1573 1572 1572 1572 1572 1571 1571 1569 1568 1567 1565 1563 1562 1561 1559 1557 1555 1554 1554 1553 1552 1550 1549 1548 1547 1545 1543 1541 1539 1536 1534
1563 1564 1566 1566 1567 1568 1569 1570 1571 1571 1572 1572 1573 1573 1573 1572 1572 1571 1570 1569 1568 1566 1565 1563 1562 1560 1557 1555 1554 1553 1552 1551 1550 1549 1548 1548 1547 1545 1543 1541 1539 1537 1535
1564 1564 1565 1566 1567 1568 1569 1570 1571 1571 1572 1572 1572 1572 1572 1572 1571 1570 1570 1568 1567 1566 1564 1563 1561 1558 1556 1554 1553 1553 1551 1549 1549 1548 1547 1547 1546 1545 1544 1542 1540 1538 1536
1563 1564 1565 1566 1567 1568 1569 1569 1570 1571 1571 1572 1572 1572 1572 1571 1571 1570 1569 1568 1567 1565 1564 1562 1560 1558 1556 1554 1552 1551 1550 1549 1548 1548 1547 1547 1547 1545 1544 1542 1540 1538 1536
1563 1564 1564 1565 1566 1567 1568 1569 1569 1570 1571 1571 1571 1571 1571 1571 1570 1569 1568 1567 1567 1565 1563 1562 1559 1557 1555 1554 1552 1551 1550 1549 1549 1548 1547 1547 1547 1546 1544 1542 1541 1539 1537